Вернуться в каталог

ORBCOMM FM 7

АктивенСвязьLEO
NORAD 25119·PAYLOAD·🇺🇸 United States

Запущен Dec 23, 1997 с Cape Canaveral Space Force Station

Loading…

Ближайшие Пролёты (ближайшие 24 часа)

TLE

СвежийSource: Space-Track

Эпоха: Sep 14, 2026, 07:15 UTC

1 25119U 97084H   26257.30218909  .00000790  00000-0  25080-3 0  9994
2 25119  45.0150 344.3681 0002005 301.4996  58.5660 14.47751748507294

Отслеживайте ORBCOMM FM 7 в реальном времени с AllMySat

Download on the App Store